Regional Weather Roundup
Issued by NWS

Home | Current Version | Previous Version | Text Only | Print | Product List | Glossary Off
Versions: 1 2 3 4 5 6 7 8 9 10 11 12 13 14 15 16 17 18 19 20 21 22 23 24 25 26 27 28 29 30 31 32 33 34 35 36 37 38 39 40 41 42 43 44 45 46 47 48 49 50

962
ASUS45 KTFX 290010
RWRMT
MONTANA REGIONAL WEATHER ROUNDUP
NATIONAL WEATHER SERVICE GREAT FALLS MT
600 PM MDT WED SEP 28 2016

NOTE: "FAIR" INDICATES FEW OR NO CLOUDS BELOW 12000 FEET WITH NO
SIGNIFICANT WEATHER AND/OR OBSTRUCTIONS TO VISIBILITY.

MTZ001>007-043-290100-
WEST OF THE DIVIDE

CITY           SKY/WX    TMP DP  RH WIND       PRES   REMARKS
KALISPELL      SUNNY     76  43  30 CALM      30.02F
MISSOULA       SUNNY     83  45  26 CALM      30.00F
BUTTE          SUNNY     75  30  19 SE7       30.16F
MULLAN PASS    PTSUNNY   68  41  37 CALM      30.16S
ANACONDA         N/A     79  34  19 SE12      30.11S
DEER LODGE       N/A     81  39  22 CALM      30.12S
EUREKA           N/A     72  39  30 NW5       30.04F
HAMILTON         N/A     81  48  32 NW3       30.02F
LIBBY            N/A     75  45  33 CALM      29.99F
PLAINS           N/A     80  46  30 SE6       29.98F
RONAN            N/A     75  44  33 NW5       30.07S
$$

MTZ008-052>055-290100-
SOUTHWEST MONTANA

CITY           SKY/WX    TMP DP  RH WIND       PRES   REMARKS
BOZEMAN        SUNNY     72  49  44 CALM      30.15S
DILLON         SUNNY     74  42  31 NE7       30.14F
W YELLOWSTONE  SUNNY     72  32  23 SW7       30.28F
ENNIS          SUNNY     72  46  40 N10       30.22S
THREE FORKS      N/A     75 -17   2 CALM      30.12F
TWIN BRIDGES     N/A     75  41  29 N10       30.11S
$$

MTZ009-010-012-014-046-048-049-054-290100-
EAST SLOPES AND CENTRAL MONTANA

CITY           SKY/WX    TMP DP  RH WIND       PRES   REMARKS
CUT BANK       SUNNY     63  42  46 SE10      30.17F
GREAT FALLS    SUNNY     67  46  47 NE7       30.14F
MALMSTROM AFB  SUNNY     67  48  52 N7        30.14F
HELENA         SUNNY     74  44  34 SW3       30.10F
AUGUSTA          N/A     61  44  52 E7        30.18S
BOWMANS CRNR     N/A     60  45  57 NE12      30.15S
CHOTEAU          N/A     64  45  48 SE7       30.18S
CONRAD           N/A     65  48  53 NE7       30.18S
FAIRFIELD        N/A     63  44  50 SE6       30.16S
RAYNESFORD       N/A     66  50  55 W5        30.15S
$$

MTZ011-013-016-021-045-047-050-051-290100-
NORTH CENTRAL MONTANA

CITY           SKY/WX    TMP DP  RH WIND       PRES   REMARKS
HAVRE          CLEAR     67  49  52 NE16      30.15S
LEWISTOWN      CLEAR     68  48  48 E12       30.16F
N BAR RANCH      N/A     64  46  52 VRB3      30.25S
CHINOOK          N/A     66  50  55 E7        30.16S
DENTON           N/A     68  50  52 NE7       30.11S
GEYSER           N/A     61  44  52 E7        30.18S
JUDITH GAP       N/A     63  47  55 S15G21    30.22S
ROY              N/A     65  50  58 MISG      30.15F
STANFORD         N/A     67  48  50 S17G24    30.14S
WINIFRED         N/A     65  50  58 MISG      30.14F
$$

MTZ017>020-022>027-061-062-290100-
NORTHEAST MONTANA

CITY           SKY/WX    TMP DP  RH WIND       PRES   REMARKS
GLASGOW        CLEAR     70  49  47 SE13      30.19S
JORDAN           N/A     73  51  46 SE10      30.18F
SIDNEY         CLEAR     72  56  57 CALM      30.22F
WOLF POINT     CLEAR     72  51  47 E8        30.21S
PLENTYWOOD       N/A     73  50  43 SE7       30.23S
POPLAR           N/A     72  52  49 E7        30.21F VSB 1
SCOBEY           N/A     72  47  40 NE5       30.20F
$$

MTZ028>42-056>058-290100-
SOUTHCENTRAL AND SOUTHEAST MONTANA

CITY           SKY/WX    TMP DP  RH WIND       PRES   REMARKS
BAKER          CLEAR     74  54  49 E7        30.25S
BILLINGS       CLEAR     70  52  52 NE7       30.17F
LIVINGSTON     SUNNY     67  48  50 E15       30.19S
MILES CITY     CLEAR     73  54  51 E6        30.19F
BIG TIMBER     SUNNY     66  50  55 E8        30.22F
EKALAKA          N/A     75  48  38 E6        30.22S
FORSYTH          N/A     72  55  56 E8        30.17F
HARLOWTON        N/A     64  48  55 E9        30.22S
LAUREL           N/A     71  51  49 NE7       30.14F
ROUNDUP          N/A     71  49  45 E5        30.09S
$$

REGIONAL REPORTS...DAKOTAS

CITY           SKY/WX    TMP DP  RH WIND       PRES   REMARKS
WILLISTON      CLEAR     73  50  44 SE13      30.24S
MINOT          CLEAR     63  43  48 E10       30.31R
DICKINSON      CLEAR     68  43  40 SE12      30.27R
BEACH            N/A     72  54  53 SE8       30.27F
CROSBY           N/A     72  45  37 SE10      30.27S
WATFORD CITY     N/A     68  48  49 SE9       30.26S
BISMARCK       CLEAR     62  47  57 E10       30.32R
GRAND FORKS    PTCLDY    58  47  66 N3        30.36R
FARGO          CLEAR     60  46  59 NE8       30.34R
BUFFALO SD       N/A     75  47  36 E12       30.20R
RAPID CITY     CLEAR     73  45  36 E8        30.28R
$$

REGIONAL REPORTS...WYOMING/IDAHO/WASHINGTON

CITY           SKY/WX    TMP DP  RH WIND       PRES   REMARKS
GILLETTE       CLEAR     74  41  30 SE10      30.26S
SHERIDAN       CLEAR     76  38  25 SE14G24   30.20S
CODY           CLEAR     75  36  23 SE17      30.22S
YELLOWSTONE LA   N/A     66  29  24 CALM      30.38S
IDAHO FALLS    SUNNY     80  42  25 W5        30.13F
SALMON         SUNNY     81  39  22 CALM      30.02S
BOISE          SUNNY     91  32  12 SE18      29.91F
SPOKANE        MOSUNNY   80  43  26 E3        29.96F
$$

REGIONAL REPORTS...ALBERTA

CITY           SKY/WX    TMP DP  RH WIND       PRES   REMARKS
EDMONTON       MOSUNNY   57  30  35 S14G20    30.23S
CALGARY        PTSUNNY   54  39  58 SE13      30.19F
MEDICINE HAT   MOCLDY    59  37  44 NE14      30.20S
WATERTON GATE    N/A     61  41  48 N6          N/A
CARDSTON         N/A     64  45  48 SE5         N/A
MILK RIVER       N/A     64  45  48 E8          N/A
ONEFOUR          N/A     64  43  45 E10         N/A
$$

REGIONAL REPORTS...SASKATCHEWAN

CITY           SKY/WX    TMP DP  RH WIND       PRES   REMARKS
SWIFT CURRENT  MOCLDY    57  41  54 E20       30.25F
REGINA         MOCLDY    64  45  48 NE10      30.25F
SASKATOON      LGT RAIN  52  39  62 E3        30.38R
VAL MARIE        N/A     70  46  43 SE7         N/A
ROCKGLEN         N/A     66  48  52 E6          N/A
ASSINIBOIA       N/A     57  30  35 SE7         N/A
$$




USA.gov is the U.S. government's official web portal to all federal, state and local government web resources and services.